Time,TemperatureF,DewpointF,PressureIn,WindDirection,WindDirectionDegrees,WindSpeedMPH,WindSpeedGustMPH,Humidity,HourlyPrecipIn,Conditions,Clouds,dailyrainin,SoftwareType,DateUTC
2013-08-21 00:01:00,68.7,66.3,30.16,ESE,115,0.0,0.0,92,0.00,,,0.00,WeatherCatV1.20B785,2013-08-21 04:01:00,
2013-08-21 00:06:00,68.6,66.2,30.16,ESE,115,0.0,0.0,92,0.00,,,0.00,WeatherCatV1.20B785,2013-08-21 04:06:00,
2013-08-21 00:11:00,68.3,65.9,30.16,ESE,115,0.0,0.0,92,0.00,,,0.00,WeatherCatV1.20B785,2013-08-21 04:11:00,
2013-08-21 00:16:00,68.1,66.0,30.16,ESE,115,0.0,0.0,93,0.00,,,0.00,WeatherCatV1.20B785,2013-08-21 04:16:00,
2013-08-21 00:21:00,67.9,65.8,30.16,ESE,115,0.0,0.0,93,0.00,,,0.00,WeatherCatV1.20B785,2013-08-21 04:21:00,
2013-08-21 00:26:00,67.7,65.6,30.16,ESE,115,0.0,0.0,93,0.00,,,0.00,WeatherCatV1.20B785,2013-08-21 04:26:00,
2013-08-21 00:31:00,67.7,65.6,30.16,ESE,115,0.0,0.0,93,0.00,,,0.00,WeatherCatV1.20B785,2013-08-21 04:31:00,
2013-08-21 00:36:00,67.7,65.6,30.16,ESE,115,0.0,0.0,93,0.00,,,0.00,WeatherCatV1.20B785,2013-08-21 04:36:00,
2013-08-21 00:41:00,67.6,65.5,30.17,ESE,115,0.0,0.0,93,0.00,,,0.00,WeatherCatV1.20B785,2013-08-21 04:41:00,
2013-08-21 00:46:00,67.5,65.7,30.17,ESE,115,0.0,0.0,94,0.00,,,0.00,WeatherCatV1.20B785,2013-08-21 04:46:00,
2013-08-21 00:51:00,67.3,65.5,30.17,ESE,115,0.0,0.0,94,0.00,,,0.00,WeatherCatV1.20B785,2013-08-21 04:51:00,
2013-08-21 00:56:00,67.3,65.5,30.17,ESE,115,0.0,0.0,94,0.00,,,0.00,WeatherCatV1.20B785,2013-08-21 04:56:00,
2013-08-21 01:01:00,67.2,65.4,30.17,ESE,115,0.0,0.0,94,0.00,,,0.00,WeatherCatV1.20B785,2013-08-21 05:01:00,
2013-08-21 01:06:00,67.1,65.3,30.17,ESE,115,0.0,0.0,94,0.00,,,0.00,WeatherCatV1.20B785,2013-08-21 05:06:00,
2013-08-21 01:11:00,67.2,65.7,30.17,ESE,115,0.0,0.0,95,0.00,,,0.00,WeatherCatV1.20B785,2013-08-21 05:11:00,
2013-08-21 01:16:00,67.1,65.3,30.17,ESE,115,0.0,0.0,94,0.00,,,0.00,WeatherCatV1.20B785,2013-08-21 05:16:00,
2013-08-21 01:21:00,67.1,65.6,30.17,ESE,115,0.0,0.0,95,0.00,,,0.00,WeatherCatV1.20B785,2013-08-21 05:21:00,
2013-08-21 01:26:00,67.1,65.6,30.17,ESE,115,0.0,0.0,95,0.00,,,0.00,WeatherCatV1.20B785,2013-08-21 05:26:00,
2013-08-21 01:31:00,67.1,65.6,30.17,ESE,115,0.0,0.0,95,0.00,,,0.00,WeatherCatV1.20B785,2013-08-21 05:31:00,
2013-08-21 01:36:00,67.1,65.6,30.16,ESE,115,0.0,0.0,95,0.00,,,0.00,WeatherCatV1.20B785,2013-08-21 05:36:00,
2013-08-21 01:41:00,67.1,65.6,30.16,ESE,115,0.0,0.0,95,0.00,,,0.00,WeatherCatV1.20B785,2013-08-21 05:41:00,
2013-08-21 01:46:00,67.1,65.6,30.16,ESE,115,0.0,0.0,95,0.00,,,0.00,WeatherCatV1.20B785,2013-08-21 05:46:00,
2013-08-21 01:51:00,67.1,65.6,30.16,ESE,115,0.0,0.0,95,0.00,,,0.00,WeatherCatV1.20B785,2013-08-21 05:51:00,
2013-08-21 01:56:00,66.9,65.4,30.15,ESE,115,0.0,0.0,95,0.00,,,0.00,WeatherCatV1.20B785,2013-08-21 05:56:00,
2013-08-21 02:01:00,66.8,65.3,30.15,ESE,115,0.0,0.0,95,0.00,,,0.00,WeatherCatV1.20B785,2013-08-21 06:01:00,
2013-08-21 02:06:00,66.7,65.2,30.15,ESE,115,0.0,0.0,95,0.00,,,0.00,WeatherCatV1.20B785,2013-08-21 06:06:00,
2013-08-21 02:11:00,66.4,64.9,30.14,ESE,115,0.0,0.0,95,0.00,,,0.00,WeatherCatV1.20B785,2013-08-21 06:11:00,
2013-08-21 02:16:00,66.4,65.2,30.14,ESE,115,0.0,0.0,96,0.00,,,0.00,WeatherCatV1.20B785,2013-08-21 06:16:00,
2013-08-21 02:21:00,66.3,65.1,30.14,ESE,115,0.0,0.0,96,0.00,,,0.00,WeatherCatV1.20B785,2013-08-21 06:21:00,
2013-08-21 02:26:00,66.1,64.9,30.14,ESE,115,0.0,0.0,96,0.00,,,0.00,WeatherCatV1.20B785,2013-08-21 06:26:00,
2013-08-21 02:31:00,66.0,64.8,30.14,ESE,115,0.0,0.0,96,0.00,,,0.00,WeatherCatV1.20B785,2013-08-21 06:31:00,
2013-08-21 02:36:00,65.9,64.7,30.14,ESE,115,0.0,0.0,96,0.00,,,0.00,WeatherCatV1.20B785,2013-08-21 06:36:00,
2013-08-21 02:41:00,65.7,64.5,30.14,ESE,115,0.0,0.0,96,0.00,,,0.00,WeatherCatV1.20B785,2013-08-21 06:41:00,
2013-08-21 02:46:00,65.6,64.4,30.15,ESE,115,0.0,0.0,96,0.00,,,0.00,WeatherCatV1.20B785,2013-08-21 06:46:00,
2013-08-21 02:51:00,65.5,64.3,30.15,ESE,115,0.0,0.0,96,0.00,,,0.00,WeatherCatV1.20B785,2013-08-21 06:51:00,
2013-08-21 02:56:00,65.4,64.2,30.15,ESE,115,0.0,0.0,96,0.00,,,0.00,WeatherCatV1.20B785,2013-08-21 06:56:00,
2013-08-21 03:01:00,65.3,64.4,30.14,ESE,115,0.0,0.0,97,0.00,,,0.00,WeatherCatV1.20B785,2013-08-21 07:01:00,
2013-08-21 03:06:00,65.3,64.4,30.14,ESE,115,0.0,0.0,97,0.00,,,0.00,WeatherCatV1.20B785,2013-08-21 07:06:00,
2013-08-21 03:11:00,65.2,64.3,30.14,ESE,115,0.0,0.0,97,0.00,,,0.00,WeatherCatV1.20B785,2013-08-21 07:11:00,
2013-08-21 03:16:00,65.1,64.2,30.14,ESE,115,0.0,0.0,97,0.00,,,0.00,WeatherCatV1.20B785,2013-08-21 07:16:00,
2013-08-21 03:21:00,65.0,64.1,30.14,ESE,115,0.0,0.0,97,0.00,,,0.00,WeatherCatV1.20B785,2013-08-21 07:21:00,
2013-08-21 03:26:00,65.0,64.1,30.14,ESE,115,0.0,0.0,97,0.00,,,0.00,WeatherCatV1.20B785,2013-08-21 07:26:00,
2013-08-21 03:31:00,65.0,64.1,30.14,ESE,115,0.0,0.0,97,0.00,,,0.00,WeatherCatV1.20B785,2013-08-21 07:31:00,
2013-08-21 03:36:00,64.9,64.0,30.14,ESE,115,0.0,0.0,97,0.00,,,0.00,WeatherCatV1.20B785,2013-08-21 07:36:00,
2013-08-21 03:41:00,64.9,64.0,30.14,ESE,115,0.0,0.0,97,0.00,,,0.00,WeatherCatV1.20B785,2013-08-21 07:41:00,
2013-08-21 03:46:00,64.9,64.0,30.14,ESE,115,0.0,0.0,97,0.00,,,0.00,WeatherCatV1.20B785,2013-08-21 07:46:00,
2013-08-21 03:51:00,64.9,64.0,30.13,ESE,115,0.0,0.0,97,0.00,,,0.00,WeatherCatV1.20B785,2013-08-21 07:51:00,
2013-08-21 03:56:00,64.8,63.9,30.13,ESE,115,0.0,0.0,97,0.00,,,0.00,WeatherCatV1.20B785,2013-08-21 07:56:00,
2013-08-21 04:01:00,64.7,63.8,30.13,ESE,115,0.0,0.0,97,0.00,,,0.00,WeatherCatV1.20B785,2013-08-21 08:01:00,
2013-08-21 04:06:00,64.7,63.8,30.13,ESE,115,0.0,0.0,97,0.00,,,0.00,WeatherCatV1.20B785,2013-08-21 08:06:00,
2013-08-21 04:11:00,64.6,63.7,30.13,ESE,115,0.0,0.0,97,0.00,,,0.00,WeatherCatV1.20B785,2013-08-21 08:11:00,
2013-08-21 04:16:00,64.6,63.7,30.14,ESE,115,0.0,0.0,97,0.00,,,0.00,WeatherCatV1.20B785,2013-08-21 08:16:00,
2013-08-21 04:21:00,64.7,64.1,30.13,ESE,115,0.0,0.0,98,0.00,,,0.00,WeatherCatV1.20B785,2013-08-21 08:21:00,
2013-08-21 04:26:00,64.7,63.8,30.14,ESE,115,0.0,0.0,97,0.00,,,0.00,WeatherCatV1.20B785,2013-08-21 08:26:00,
2013-08-21 04:31:00,64.7,63.8,30.14,ESE,115,0.0,0.0,97,0.00,,,0.00,WeatherCatV1.20B785,2013-08-21 08:31:00,
2013-08-21 04:36:00,64.7,63.8,30.14,ESE,115,0.0,0.0,97,0.00,,,0.00,WeatherCatV1.20B785,2013-08-21 08:36:00,
2013-08-21 04:41:00,64.6,64.0,30.14,ESE,115,0.0,0.0,98,0.00,,,0.00,WeatherCatV1.20B785,2013-08-21 08:41:00,
2013-08-21 04:46:00,64.6,64.0,30.15,ESE,115,0.0,0.0,98,0.00,,,0.00,WeatherCatV1.20B785,2013-08-21 08:46:00,
2013-08-21 04:51:00,64.7,64.1,30.15,ESE,115,0.0,0.0,98,0.00,,,0.00,WeatherCatV1.20B785,2013-08-21 08:51:00,
2013-08-21 04:56:00,64.7,64.1,30.15,ESE,115,0.0,0.0,98,0.00,,,0.00,WeatherCatV1.20B785,2013-08-21 08:56:00,
2013-08-21 05:01:00,64.6,64.0,30.15,ESE,115,0.0,0.0,98,0.00,,,0.00,WeatherCatV1.20B785,2013-08-21 09:01:00,
2013-08-21 05:06:00,64.6,64.0,30.15,ESE,115,0.0,0.0,98,0.00,,,0.00,WeatherCatV1.20B785,2013-08-21 09:06:00,
2013-08-21 05:11:00,64.5,63.9,30.15,ESE,115,0.0,0.0,98,0.00,,,0.00,WeatherCatV1.20B785,2013-08-21 09:11:00,
2013-08-21 05:16:00,64.5,63.9,30.15,ESE,115,0.0,0.0,98,0.00,,,0.00,WeatherCatV1.20B785,2013-08-21 09:16:00,
2013-08-21 05:21:00,64.6,64.0,30.15,ESE,115,0.0,0.0,98,0.00,,,0.00,WeatherCatV1.20B785,2013-08-21 09:21:00,
2013-08-21 05:26:00,64.6,64.0,30.15,ESE,115,0.0,0.0,98,0.00,,,0.00,WeatherCatV1.20B785,2013-08-21 09:26:00,
2013-08-21 05:31:00,64.5,63.9,30.15,ESE,115,0.0,0.0,98,0.00,,,0.00,WeatherCatV1.20B785,2013-08-21 09:31:00,
2013-08-21 05:36:00,64.6,64.0,30.15,ESE,115,0.0,0.0,98,0.00,,,0.00,WeatherCatV1.20B785,2013-08-21 09:36:00,
2013-08-21 05:41:00,64.6,64.0,30.15,ESE,115,0.0,0.0,98,0.00,,,0.00,WeatherCatV1.20B785,2013-08-21 09:41:00,
2013-08-21 05:46:00,64.5,63.9,30.15,ESE,115,0.0,0.0,98,0.00,,,0.00,WeatherCatV1.20B785,2013-08-21 09:46:00,
2013-08-21 05:51:00,64.5,63.9,30.16,ESE,115,0.0,0.0,98,0.00,,,0.00,WeatherCatV1.20B785,2013-08-21 09:51:00,
2013-08-21 05:56:00,64.4,63.5,30.15,ESE,115,0.0,0.0,97,0.00,,,0.00,WeatherCatV1.20B785,2013-08-21 09:56:00,
2013-08-21 06:01:00,64.4,63.8,30.16,ESE,115,0.0,0.0,98,0.00,,,0.00,WeatherCatV1.20B785,2013-08-21 10:01:00,
2013-08-21 06:06:00,64.4,63.8,30.16,ESE,115,0.0,0.0,98,0.00,,,0.00,WeatherCatV1.20B785,2013-08-21 10:06:00,
2013-08-21 06:11:00,64.4,63.8,30.17,ESE,115,0.0,0.0,98,0.00,,,0.00,WeatherCatV1.20B785,2013-08-21 10:11:00,
2013-08-21 06:16:00,64.3,63.4,30.17,ESE,115,0.0,0.0,97,0.00,,,0.00,WeatherCatV1.20B785,2013-08-21 10:16:00,
2013-08-21 06:21:00,64.3,63.7,30.17,ESE,115,0.0,0.0,98,0.00,,,0.00,WeatherCatV1.20B785,2013-08-21 10:21:00,
2013-08-21 06:26:00,64.3,63.7,30.17,ESE,115,0.0,0.0,98,0.00,,,0.00,WeatherCatV1.20B785,2013-08-21 10:26:00,
2013-08-21 06:31:00,64.2,63.3,30.17,ESE,115,0.0,0.0,97,0.00,,,0.00,WeatherCatV1.20B785,2013-08-21 10:31:00,
2013-08-21 06:36:00,64.3,63.7,30.17,ESE,115,0.0,0.0,98,0.00,,,0.00,WeatherCatV1.20B785,2013-08-21 10:36:00,
2013-08-21 06:41:00,64.4,63.8,30.17,ESE,115,0.0,0.0,98,0.00,,,0.00,WeatherCatV1.20B785,2013-08-21 10:41:00,
2013-08-21 06:46:00,64.5,63.9,30.17,ESE,115,0.0,0.0,98,0.00,,,0.00,WeatherCatV1.20B785,2013-08-21 10:46:00,
2013-08-21 06:51:00,64.5,63.9,30.17,ESE,115,0.0,0.0,98,0.00,,,0.00,WeatherCatV1.20B785,2013-08-21 10:51:00,
2013-08-21 06:56:00,64.6,64.0,30.17,ESE,115,0.0,0.0,98,0.00,,,0.00,WeatherCatV1.20B785,2013-08-21 10:56:00,
2013-08-21 07:01:00,64.6,64.0,30.17,ESE,115,0.0,0.0,98,0.00,,,0.00,WeatherCatV1.20B785,2013-08-21 11:01:00,
2013-08-21 07:06:00,64.7,64.1,30.17,ESE,115,0.0,0.0,98,0.00,,,0.00,WeatherCatV1.20B785,2013-08-21 11:06:00,
2013-08-21 07:11:00,64.7,64.1,30.17,ESE,115,0.0,0.0,98,0.21,,,0.02,WeatherCatV1.20B785,2013-08-21 11:11:00,
2013-08-21 07:16:00,64.8,64.2,30.17,ESE,115,0.0,0.0,98,0.14,,,0.04,WeatherCatV1.20B785,2013-08-21 11:16:00,
2013-08-21 07:21:00,64.8,64.2,30.17,ESE,115,0.0,0.0,98,0.06,,,0.04,WeatherCatV1.20B785,2013-08-21 11:21:00,
2013-08-21 07:26:00,64.8,64.2,30.17,ESE,115,0.0,0.0,98,0.04,,,0.04,WeatherCatV1.20B785,2013-08-21 11:26:00,
2013-08-21 07:31:00,64.9,64.3,30.16,ESE,115,0.0,0.0,98,0.00,,,0.04,WeatherCatV1.20B785,2013-08-21 11:31:00,
2013-08-21 07:36:00,65.0,64.4,30.16,ESE,115,0.0,0.0,98,0.00,,,0.04,WeatherCatV1.20B785,2013-08-21 11:36:00,
2013-08-21 07:41:00,65.0,64.4,30.16,ESE,115,0.0,0.0,98,0.00,,,0.04,WeatherCatV1.20B785,2013-08-21 11:41:00,
2013-08-21 07:46:00,65.0,64.4,30.16,ESE,115,0.0,0.0,98,0.00,,,0.04,WeatherCatV1.20B785,2013-08-21 11:46:00,
2013-08-21 07:51:00,64.9,64.3,30.15,ESE,115,0.0,0.0,98,0.00,,,0.04,WeatherCatV1.20B785,2013-08-21 11:51:00,
2013-08-21 07:56:00,65.0,64.4,30.15,ESE,115,0.0,0.0,98,0.00,,,0.04,WeatherCatV1.20B785,2013-08-21 11:56:00,
2013-08-21 08:01:00,64.9,64.3,30.15,ESE,115,0.0,0.0,98,0.00,,,0.04,WeatherCatV1.20B785,2013-08-21 12:01:00,
2013-08-21 08:06:00,64.9,64.3,30.16,ESE,115,0.0,0.0,98,0.00,,,0.04,WeatherCatV1.20B785,2013-08-21 12:06:00,
2013-08-21 08:11:00,65.1,64.5,30.16,ENE,77,1.0,1.0,98,0.00,,,0.04,WeatherCatV1.20B785,2013-08-21 12:11:00,
2013-08-21 08:16:00,65.3,64.7,30.17,NNE,27,3.0,5.0,98,0.00,,,0.04,WeatherCatV1.20B785,2013-08-21 12:16:00,
2013-08-21 08:21:00,65.6,65.0,30.18,ENE,65,4.0,6.0,98,0.00,,,0.04,WeatherCatV1.20B785,2013-08-21 12:21:00,
2013-08-21 08:26:00,65.7,65.1,30.18,NE,54,2.0,7.0,98,0.00,,,0.04,WeatherCatV1.20B785,2013-08-21 12:26:00,
2013-08-21 08:31:00,65.7,64.8,30.18,NE,52,3.0,5.0,97,0.00,,,0.04,WeatherCatV1.20B785,2013-08-21 12:31:00,
2013-08-21 08:36:00,65.7,64.8,30.18,ENE,60,4.0,7.0,97,0.00,,,0.04,WeatherCatV1.20B785,2013-08-21 12:36:00,
2013-08-21 08:41:00,65.9,65.0,30.18,ENE,63,2.0,6.0,97,0.00,,,0.04,WeatherCatV1.20B785,2013-08-21 12:41:00,
2013-08-21 08:46:00,66.1,65.2,30.18,ENE,60,3.0,3.0,97,0.00,,,0.04,WeatherCatV1.20B785,2013-08-21 12:46:00,
2013-08-21 08:51:00,66.4,65.5,30.18,NE,49,2.0,3.0,97,0.00,,,0.04,WeatherCatV1.20B785,2013-08-21 12:51:00,
2013-08-21 08:56:00,66.6,65.4,30.18,NE,49,2.0,6.0,96,0.00,,,0.04,WeatherCatV1.20B785,2013-08-21 12:56:00,
2013-08-21 09:01:00,66.8,65.6,30.18,NE,51,2.0,4.0,96,0.00,,,0.04,WeatherCatV1.20B785,2013-08-21 13:01:00,
2013-08-21 09:06:00,67.0,65.8,30.18,ENE,69,0.0,0.0,96,0.00,,,0.04,WeatherCatV1.20B785,2013-08-21 13:06:00,
2013-08-21 09:11:00,67.1,66.2,30.18,ENE,69,0.0,0.0,97,0.00,,,0.04,WeatherCatV1.20B785,2013-08-21 13:11:00,
2013-08-21 09:16:00,67.3,66.4,30.18,ENE,69,0.0,0.0,97,0.00,,,0.04,WeatherCatV1.20B785,2013-08-21 13:16:00,
2013-08-21 09:21:00,67.3,66.4,30.18,ENE,69,0.0,0.0,97,0.00,,,0.04,WeatherCatV1.20B785,2013-08-21 13:21:00,
2013-08-21 09:26:00,67.3,66.4,30.18,ENE,69,0.0,0.0,97,0.00,,,0.04,WeatherCatV1.20B785,2013-08-21 13:26:00,
2013-08-21 09:31:00,67.3,66.4,30.18,ENE,69,0.0,0.0,97,0.00,,,0.04,WeatherCatV1.20B785,2013-08-21 13:31:00,
2013-08-21 09:36:00,67.5,66.6,30.18,ENE,69,0.0,0.0,97,0.00,,,0.04,WeatherCatV1.20B785,2013-08-21 13:36:00,
2013-08-21 09:41:00,67.6,66.7,30.19,ENE,69,0.0,0.0,97,0.00,,,0.04,WeatherCatV1.20B785,2013-08-21 13:41:00,
2013-08-21 09:46:00,67.7,66.8,30.18,ENE,69,0.0,0.0,97,0.00,,,0.04,WeatherCatV1.20B785,2013-08-21 13:46:00,
2013-08-21 09:51:00,67.8,66.9,30.18,ENE,69,0.0,0.0,97,0.00,,,0.04,WeatherCatV1.20B785,2013-08-21 13:51:00,
2013-08-21 09:56:00,67.9,67.0,30.19,ENE,69,0.0,0.0,97,0.00,,,0.04,WeatherCatV1.20B785,2013-08-21 13:56:00,
2013-08-21 10:01:00,68.2,67.0,30.19,ENE,69,0.0,0.0,96,0.00,,,0.04,WeatherCatV1.20B785,2013-08-21 14:01:00,
2013-08-21 10:06:00,68.4,67.2,30.19,ENE,69,0.0,0.0,96,0.00,,,0.04,WeatherCatV1.20B785,2013-08-21 14:06:00,
2013-08-21 10:11:00,68.6,67.1,30.19,ENE,69,0.0,0.0,95,0.00,,,0.04,WeatherCatV1.20B785,2013-08-21 14:11:00,
2013-08-21 10:16:00,69.0,67.8,30.20,ENE,69,0.0,0.0,96,0.00,,,0.04,WeatherCatV1.20B785,2013-08-21 14:16:00,
2013-08-21 10:21:00,69.3,67.5,30.19,ENE,69,0.0,0.0,94,0.00,,,0.04,WeatherCatV1.20B785,2013-08-21 14:21:00,
2013-08-21 10:26:00,69.6,68.1,30.20,East,79,0.0,0.0,95,0.00,,,0.04,WeatherCatV1.20B785,2013-08-21 14:26:00,
2013-08-21 10:31:00,69.9,67.8,30.19,SE,136,0.0,0.0,93,0.00,,,0.04,WeatherCatV1.20B785,2013-08-21 14:31:00,
2013-08-21 10:36:00,70.1,68.0,30.20,East,84,0.0,0.0,93,0.00,,,0.04,WeatherCatV1.20B785,2013-08-21 14:36:00,
2013-08-21 10:41:00,70.3,68.2,30.19,ENE,64,0.0,0.0,93,0.00,,,0.04,WeatherCatV1.20B785,2013-08-21 14:41:00,
2013-08-21 10:46:00,70.6,68.2,30.20,ENE,65,0.0,0.0,92,0.00,,,0.04,WeatherCatV1.20B785,2013-08-21 14:46:00,
2013-08-21 10:51:00,70.7,68.2,30.20,ENE,67,0.0,0.0,92,0.00,,,0.04,WeatherCatV1.20B785,2013-08-21 14:51:00,
2013-08-21 10:56:00,71.0,68.6,30.20,ENE,66,0.0,0.0,92,0.00,,,0.04,WeatherCatV1.20B785,2013-08-21 14:56:00,
2013-08-21 11:01:00,71.1,68.7,30.20,ENE,67,0.0,0.0,92,0.00,,,0.04,WeatherCatV1.20B785,2013-08-21 15:01:00,
2013-08-21 11:06:00,71.3,68.5,30.20,ENE,66,0.0,0.0,91,0.00,,,0.04,WeatherCatV1.20B785,2013-08-21 15:06:00,
2013-08-21 11:11:00,71.4,68.0,30.20,ENE,68,0.0,0.0,89,0.00,,,0.04,WeatherCatV1.20B785,2013-08-21 15:11:00,
2013-08-21 11:16:00,71.5,68.1,30.20,ENE,68,0.0,0.0,89,0.00,,,0.04,WeatherCatV1.20B785,2013-08-21 15:16:00,
2013-08-21 11:21:00,71.8,68.4,30.19,ENE,68,0.0,0.0,89,0.00,,,0.04,WeatherCatV1.20B785,2013-08-21 15:21:00,
2013-08-21 11:26:00,72.0,69.2,30.19,ENE,68,0.0,0.0,91,0.00,,,0.04,WeatherCatV1.20B785,2013-08-21 15:26:00,
2013-08-21 11:31:00,72.4,69.6,30.19,ENE,68,0.0,0.0,91,0.00,,,0.04,WeatherCatV1.20B785,2013-08-21 15:31:00,
2013-08-21 11:36:00,72.5,68.4,30.19,ENE,63,0.0,0.0,87,0.00,,,0.04,WeatherCatV1.20B785,2013-08-21 15:36:00,
2013-08-21 11:41:00,72.5,68.1,30.19,SE,133,0.0,0.0,86,0.00,,,0.04,WeatherCatV1.20B785,2013-08-21 15:41:00,
2013-08-21 11:46:00,72.8,68.4,30.20,ESE,102,0.0,0.0,86,0.00,,,0.04,WeatherCatV1.20B785,2013-08-21 15:46:00,
2013-08-21 11:51:00,72.9,67.4,30.19,ENE,65,1.0,2.0,83,0.00,,,0.04,WeatherCatV1.20B785,2013-08-21 15:51:00,
2013-08-21 11:56:00,72.7,67.9,30.19,SE,134,1.0,3.0,85,0.00,,,0.04,WeatherCatV1.20B785,2013-08-21 15:56:00,
2013-08-21 12:01:00,72.3,67.9,30.19,SE,130,0.0,0.0,86,0.00,,,0.04,WeatherCatV1.20B785,2013-08-21 16:01:00,
2013-08-21 12:06:00,72.2,68.4,30.19,ESE,114,0.0,0.0,88,0.00,,,0.04,WeatherCatV1.20B785,2013-08-21 16:06:00,
2013-08-21 12:11:00,72.2,67.8,30.19,ESE,107,1.0,3.0,86,0.00,,,0.04,WeatherCatV1.20B785,2013-08-21 16:11:00,
2013-08-21 12:16:00,72.2,68.4,30.19,ESE,105,0.0,0.0,88,0.00,,,0.04,WeatherCatV1.20B785,2013-08-21 16:16:00,
2013-08-21 12:21:00,72.1,67.3,30.19,East,79,1.0,3.0,85,0.00,,,0.04,WeatherCatV1.20B785,2013-08-21 16:21:00,
2013-08-21 12:26:00,72.2,67.8,30.19,ESE,102,0.0,1.0,86,0.00,,,0.04,WeatherCatV1.20B785,2013-08-21 16:26:00,
2013-08-21 12:31:00,72.3,67.5,30.19,ESE,116,0.0,1.0,85,0.00,,,0.04,WeatherCatV1.20B785,2013-08-21 16:31:00,
2013-08-21 12:36:00,72.3,68.2,30.19,ESE,115,0.0,1.0,87,0.00,,,0.04,WeatherCatV1.20B785,2013-08-21 16:36:00,
2013-08-21 12:41:00,72.5,68.4,30.19,SE,131,0.0,0.0,87,0.00,,,0.04,WeatherCatV1.20B785,2013-08-21 16:41:00,
2013-08-21 12:46:00,72.7,67.9,30.19,SE,131,0.0,0.0,85,0.00,,,0.04,WeatherCatV1.20B785,2013-08-21 16:46:00,
2013-08-21 12:51:00,72.9,68.8,30.19,SE,131,0.0,0.0,87,0.00,,,0.04,WeatherCatV1.20B785,2013-08-21 16:51:00,
2013-08-21 12:56:00,72.9,68.5,30.19,SE,132,0.0,0.0,86,0.00,,,0.04,WeatherCatV1.20B785,2013-08-21 16:56:00,
2013-08-21 13:01:00,73.0,68.2,30.19,East,89,1.0,1.0,85,0.00,,,0.04,WeatherCatV1.20B785,2013-08-21 17:01:00,
2013-08-21 13:06:00,73.1,68.0,30.18,ENE,77,0.0,1.0,84,0.00,,,0.04,WeatherCatV1.20B785,2013-08-21 17:06:00,
2013-08-21 13:11:00,73.1,68.0,30.18,ENE,78,0.0,0.0,84,0.00,,,0.04,WeatherCatV1.20B785,2013-08-21 17:11:00,
2013-08-21 13:16:00,73.1,68.7,30.18,ENE,78,0.0,0.0,86,0.00,,,0.04,WeatherCatV1.20B785,2013-08-21 17:16:00,
2013-08-21 13:21:00,72.9,68.8,30.18,ENE,78,0.0,0.0,87,0.00,,,0.04,WeatherCatV1.20B785,2013-08-21 17:21:00,
2013-08-21 13:26:00,72.8,68.4,30.18,ENE,66,0.0,0.0,86,0.00,,,0.04,WeatherCatV1.20B785,2013-08-21 17:26:00,
2013-08-21 13:31:00,72.7,68.9,30.18,ENE,66,0.0,0.0,88,0.00,,,0.04,WeatherCatV1.20B785,2013-08-21 17:31:00,
2013-08-21 13:36:00,72.6,68.8,30.17,East,83,0.0,0.0,88,0.00,,,0.04,WeatherCatV1.20B785,2013-08-21 17:36:00,
2013-08-21 13:41:00,72.7,68.9,30.17,East,84,0.0,0.0,88,0.00,,,0.04,WeatherCatV1.20B785,2013-08-21 17:41:00,
2013-08-21 13:46:00,72.6,68.5,30.17,ENE,69,0.0,0.0,87,0.00,,,0.04,WeatherCatV1.20B785,2013-08-21 17:46:00,
2013-08-21 13:51:00,72.4,68.6,30.17,ENE,69,0.0,0.0,88,0.00,,,0.04,WeatherCatV1.20B785,2013-08-21 17:51:00,
2013-08-21 13:56:00,72.5,68.7,30.16,ENE,78,0.0,0.0,88,0.00,,,0.04,WeatherCatV1.20B785,2013-08-21 17:56:00,
2013-08-21 14:01:00,72.6,69.2,30.16,East,93,0.0,0.0,89,0.00,,,0.04,WeatherCatV1.20B785,2013-08-21 18:01:00,
2013-08-21 14:06:00,72.7,69.3,30.16,East,93,0.0,0.0,89,0.00,,,0.04,WeatherCatV1.20B785,2013-08-21 18:06:00,
2013-08-21 14:11:00,72.9,68.8,30.16,East,93,0.0,0.0,87,0.00,,,0.04,WeatherCatV1.20B785,2013-08-21 18:11:00,
2013-08-21 14:16:00,73.1,69.3,30.16,East,93,0.0,0.0,88,0.00,,,0.04,WeatherCatV1.20B785,2013-08-21 18:16:00,
2013-08-21 14:21:00,73.4,69.3,30.16,East,93,0.0,0.0,87,0.00,,,0.04,WeatherCatV1.20B785,2013-08-21 18:21:00,
2013-08-21 14:26:00,73.5,69.0,30.15,East,93,0.0,0.0,86,0.00,,,0.04,WeatherCatV1.20B785,2013-08-21 18:26:00,
2013-08-21 14:31:00,73.5,69.4,30.16,East,94,0.0,0.0,87,0.00,,,0.04,WeatherCatV1.20B785,2013-08-21 18:31:00,
2013-08-21 14:36:00,73.2,69.1,30.16,East,94,0.0,0.0,87,0.00,,,0.04,WeatherCatV1.20B785,2013-08-21 18:36:00,
2013-08-21 14:41:00,73.2,68.8,30.15,East,94,0.0,0.0,86,0.00,,,0.04,WeatherCatV1.20B785,2013-08-21 18:41:00,
2013-08-21 14:46:00,73.5,69.0,30.15,East,93,0.0,0.0,86,0.00,,,0.04,WeatherCatV1.20B785,2013-08-21 18:46:00,
2013-08-21 14:51:00,73.7,68.9,30.15,East,93,0.0,0.0,85,0.00,,,0.04,WeatherCatV1.20B785,2013-08-21 18:51:00,
2013-08-21 14:56:00,73.6,69.1,30.14,East,93,0.0,0.0,86,0.00,,,0.04,WeatherCatV1.20B785,2013-08-21 18:56:00,
2013-08-21 15:01:00,73.7,69.2,30.14,East,93,0.0,0.0,86,0.00,,,0.04,WeatherCatV1.20B785,2013-08-21 19:01:00,
2013-08-21 15:06:00,73.9,69.4,30.14,East,93,0.0,0.0,86,0.00,,,0.04,WeatherCatV1.20B785,2013-08-21 19:06:00,
2013-08-21 15:11:00,74.1,69.3,30.14,East,93,0.0,0.0,85,0.00,,,0.04,WeatherCatV1.20B785,2013-08-21 19:11:00,
2013-08-21 15:16:00,74.2,69.7,30.14,East,93,0.0,0.0,86,0.00,,,0.04,WeatherCatV1.20B785,2013-08-21 19:16:00,
2013-08-21 15:21:00,74.1,69.3,30.13,East,93,0.0,0.0,85,0.00,,,0.04,WeatherCatV1.20B785,2013-08-21 19:21:00,
2013-08-21 15:26:00,74.3,69.1,30.13,East,93,0.0,0.0,84,0.00,,,0.04,WeatherCatV1.20B785,2013-08-21 19:26:00,
2013-08-21 15:31:00,74.3,68.8,30.14,East,93,0.0,0.0,83,0.00,,,0.04,WeatherCatV1.20B785,2013-08-21 19:31:00,
2013-08-21 15:36:00,74.3,68.8,30.14,East,93,0.0,0.0,83,0.00,,,0.04,WeatherCatV1.20B785,2013-08-21 19:36:00,
2013-08-21 15:41:00,74.4,69.2,30.14,East,93,0.0,0.0,84,0.00,,,0.04,WeatherCatV1.20B785,2013-08-21 19:41:00,
2013-08-21 15:46:00,74.5,69.3,30.14,East,93,0.0,0.0,84,0.00,,,0.04,WeatherCatV1.20B785,2013-08-21 19:46:00,
2013-08-21 15:51:00,74.6,69.1,30.14,East,93,0.0,0.0,83,0.00,,,0.04,WeatherCatV1.20B785,2013-08-21 19:51:00,
2013-08-21 15:56:00,74.7,69.2,30.14,East,93,0.0,0.0,83,0.00,,,0.04,WeatherCatV1.20B785,2013-08-21 19:56:00,
2013-08-21 16:01:00,74.9,69.4,30.14,East,93,0.0,0.0,83,0.00,,,0.04,WeatherCatV1.20B785,2013-08-21 20:01:00,
2013-08-21 16:06:00,74.8,69.3,30.14,East,93,0.0,0.0,83,0.00,,,0.04,WeatherCatV1.20B785,2013-08-21 20:06:00,
2013-08-21 16:11:00,74.7,69.2,30.14,East,93,0.0,0.0,83,0.00,,,0.04,WeatherCatV1.20B785,2013-08-21 20:11:00,
2013-08-21 16:16:00,74.8,69.6,30.14,East,93,0.0,0.0,84,0.00,,,0.04,WeatherCatV1.20B785,2013-08-21 20:16:00,
2013-08-21 16:21:00,74.6,69.1,30.14,East,93,0.0,0.0,83,0.00,,,0.04,WeatherCatV1.20B785,2013-08-21 20:21:00,
2013-08-21 16:26:00,74.6,69.8,30.14,East,93,0.0,0.0,85,0.00,,,0.04,WeatherCatV1.20B785,2013-08-21 20:26:00,
2013-08-21 16:31:00,74.5,70.0,30.14,East,93,0.0,0.0,86,0.00,,,0.04,WeatherCatV1.20B785,2013-08-21 20:31:00,
2013-08-21 16:36:00,74.5,69.3,30.14,East,93,0.0,0.0,84,0.00,,,0.04,WeatherCatV1.20B785,2013-08-21 20:36:00,
2013-08-21 16:41:00,74.3,69.5,30.14,East,93,0.0,0.0,85,0.00,,,0.04,WeatherCatV1.20B785,2013-08-21 20:41:00,
2013-08-21 16:46:00,74.4,69.6,30.14,East,93,0.0,0.0,85,0.00,,,0.04,WeatherCatV1.20B785,2013-08-21 20:46:00,
2013-08-21 16:51:00,74.6,69.4,30.14,East,93,0.0,0.0,84,0.00,,,0.04,WeatherCatV1.20B785,2013-08-21 20:51:00,
2013-08-21 16:56:00,74.8,69.3,30.13,East,93,0.0,0.0,83,0.00,,,0.04,WeatherCatV1.20B785,2013-08-21 20:56:00,
2013-08-21 17:01:00,75.1,69.9,30.13,East,93,0.0,0.0,84,0.00,,,0.04,WeatherCatV1.20B785,2013-08-21 21:01:00,
2013-08-21 17:06:00,75.3,69.8,30.13,East,93,0.0,0.0,83,0.00,,,0.04,WeatherCatV1.20B785,2013-08-21 21:06:00,
2013-08-21 17:11:00,75.1,69.9,30.12,East,93,0.0,0.0,84,0.00,,,0.04,WeatherCatV1.20B785,2013-08-21 21:11:00,
2013-08-21 17:16:00,75.0,69.8,30.12,East,93,0.0,0.0,84,0.00,,,0.04,WeatherCatV1.20B785,2013-08-21 21:16:00,
2013-08-21 17:21:00,74.9,69.7,30.12,East,93,0.0,0.0,84,0.00,,,0.04,WeatherCatV1.20B785,2013-08-21 21:21:00,
2013-08-21 17:26:00,74.9,69.7,30.11,East,93,0.0,0.0,84,0.00,,,0.04,WeatherCatV1.20B785,2013-08-21 21:26:00,
2013-08-21 17:31:00,74.9,69.7,30.11,East,93,0.0,0.0,84,0.00,,,0.04,WeatherCatV1.20B785,2013-08-21 21:31:00,
2013-08-21 17:36:00,74.9,69.4,30.10,East,93,0.0,0.0,83,0.00,,,0.04,WeatherCatV1.20B785,2013-08-21 21:36:00,
2013-08-21 17:41:00,74.8,69.6,30.10,East,93,0.0,0.0,84,0.00,,,0.04,WeatherCatV1.20B785,2013-08-21 21:41:00,
2013-08-21 17:46:00,74.8,69.6,30.09,East,93,0.0,0.0,84,0.00,,,0.04,WeatherCatV1.20B785,2013-08-21 21:46:00,
2013-08-21 17:51:00,74.8,69.6,30.09,East,93,0.0,0.0,84,0.00,,,0.04,WeatherCatV1.20B785,2013-08-21 21:51:00,
2013-08-21 17:56:00,75.1,69.9,30.09,East,93,0.0,0.0,84,0.00,,,0.04,WeatherCatV1.20B785,2013-08-21 21:56:00,
2013-08-21 18:01:00,75.4,69.5,30.09,East,91,0.0,0.0,82,0.00,,,0.04,WeatherCatV1.20B785,2013-08-21 22:01:00,
2013-08-21 18:06:00,75.7,69.8,30.10,East,98,0.0,0.0,82,0.00,,,0.04,WeatherCatV1.20B785,2013-08-21 22:06:00,
2013-08-21 18:11:00,75.8,69.9,30.10,East,98,0.0,0.0,82,0.00,,,0.04,WeatherCatV1.20B785,2013-08-21 22:11:00,
2013-08-21 18:16:00,76.0,69.4,30.10,ENE,78,0.0,0.0,80,0.00,,,0.04,WeatherCatV1.20B785,2013-08-21 22:16:00,
2013-08-21 18:21:00,76.1,69.5,30.10,NE,52,0.0,0.0,80,0.00,,,0.04,WeatherCatV1.20B785,2013-08-21 22:21:00,
2013-08-21 18:26:00,75.9,69.6,30.10,NE,56,0.0,0.0,81,0.00,,,0.04,WeatherCatV1.20B785,2013-08-21 22:26:00,
2013-08-21 18:31:00,75.7,69.4,30.10,ENE,65,0.0,3.0,81,0.00,,,0.04,WeatherCatV1.20B785,2013-08-21 22:31:00,
2013-08-21 18:36:00,75.7,69.1,30.10,ENE,66,1.0,2.0,80,0.00,,,0.04,WeatherCatV1.20B785,2013-08-21 22:36:00,
2013-08-21 18:41:00,75.5,70.0,30.10,ENE,74,0.0,0.0,83,0.00,,,0.04,WeatherCatV1.20B785,2013-08-21 22:41:00,
2013-08-21 18:46:00,75.2,69.3,30.10,ENE,65,0.0,0.0,82,0.00,,,0.04,WeatherCatV1.20B785,2013-08-21 22:46:00,
2013-08-21 18:51:00,74.9,68.3,30.11,ENE,65,0.0,0.0,80,0.00,,,0.04,WeatherCatV1.20B785,2013-08-21 22:51:00,
2013-08-21 18:56:00,74.7,69.2,30.11,ENE,65,0.0,0.0,83,0.00,,,0.04,WeatherCatV1.20B785,2013-08-21 22:56:00,
2013-08-21 19:01:00,74.3,69.5,30.11,ENE,65,0.0,0.0,85,0.00,,,0.04,WeatherCatV1.20B785,2013-08-21 23:01:00,
2013-08-21 19:06:00,74.0,69.5,30.11,ENE,65,0.0,0.0,86,0.00,,,0.04,WeatherCatV1.20B785,2013-08-21 23:06:00,
2013-08-21 19:11:00,73.8,69.3,30.10,ENE,65,0.0,0.0,86,0.00,,,0.04,WeatherCatV1.20B785,2013-08-21 23:11:00,
2013-08-21 19:16:00,73.5,69.0,30.10,ENE,65,0.0,0.0,86,0.00,,,0.04,WeatherCatV1.20B785,2013-08-21 23:16:00,
2013-08-21 19:21:00,73.3,69.2,30.09,ENE,65,0.0,0.0,87,0.00,,,0.04,WeatherCatV1.20B785,2013-08-21 23:21:00,
2013-08-21 19:26:00,73.1,69.0,30.10,ENE,65,0.0,0.0,87,0.00,,,0.04,WeatherCatV1.20B785,2013-08-21 23:26:00,
2013-08-21 19:31:00,73.1,69.3,30.10,ENE,65,0.0,0.0,88,0.00,,,0.04,WeatherCatV1.20B785,2013-08-21 23:31:00,
2013-08-21 19:36:00,72.8,68.7,30.10,ENE,65,0.0,0.0,87,0.00,,,0.04,WeatherCatV1.20B785,2013-08-21 23:36:00,
2013-08-21 19:41:00,72.5,69.1,30.10,ENE,65,0.0,0.0,89,0.00,,,0.04,WeatherCatV1.20B785,2013-08-21 23:41:00,
2013-08-21 19:46:00,72.2,69.1,30.10,ENE,65,0.0,0.0,90,0.00,,,0.04,WeatherCatV1.20B785,2013-08-21 23:46:00,
2013-08-21 19:51:00,71.8,69.0,30.10,ENE,65,0.0,0.0,91,0.00,,,0.04,WeatherCatV1.20B785,2013-08-21 23:51:00,
2013-08-21 19:56:00,71.6,68.8,30.10,ENE,65,0.0,0.0,91,0.00,,,0.04,WeatherCatV1.20B785,2013-08-21 23:56:00,
2013-08-21 20:01:00,71.2,68.4,30.10,ENE,65,0.0,0.0,91,0.00,,,0.04,WeatherCatV1.20B785,2013-08-22 00:01:00,
2013-08-21 20:06:00,71.1,68.7,30.10,ENE,65,0.0,0.0,92,0.00,,,0.04,WeatherCatV1.20B785,2013-08-22 00:06:00,
2013-08-21 20:11:00,70.8,68.3,30.10,ENE,65,0.0,0.0,92,0.00,,,0.04,WeatherCatV1.20B785,2013-08-22 00:11:00,
2013-08-21 20:16:00,70.5,68.1,30.10,ENE,65,0.0,0.0,92,0.00,,,0.04,WeatherCatV1.20B785,2013-08-22 00:16:00,
2013-08-21 20:21:00,70.2,68.1,30.10,ENE,65,0.0,0.0,93,0.00,,,0.04,WeatherCatV1.20B785,2013-08-22 00:21:00,
2013-08-21 20:26:00,69.9,67.8,30.10,ENE,65,0.0,0.0,93,0.00,,,0.04,WeatherCatV1.20B785,2013-08-22 00:26:00,
2013-08-21 20:31:00,69.6,67.5,30.10,ENE,65,0.0,0.0,93,0.00,,,0.04,WeatherCatV1.20B785,2013-08-22 00:31:00,
2013-08-21 20:36:00,69.4,67.3,30.10,ENE,65,0.0,0.0,93,0.00,,,0.04,WeatherCatV1.20B785,2013-08-22 00:36:00,
2013-08-21 20:41:00,69.2,67.1,30.10,ENE,65,0.0,0.0,93,0.00,,,0.04,WeatherCatV1.20B785,2013-08-22 00:41:00,
2013-08-21 20:46:00,69.0,67.2,30.10,ENE,65,0.0,0.0,94,0.00,,,0.04,WeatherCatV1.20B785,2013-08-22 00:46:00,
2013-08-21 20:51:00,68.8,67.0,30.11,ENE,65,0.0,0.0,94,0.00,,,0.04,WeatherCatV1.20B785,2013-08-22 00:51:00,
2013-08-21 20:56:00,68.6,66.8,30.11,ENE,65,0.0,0.0,94,0.00,,,0.04,WeatherCatV1.20B785,2013-08-22 00:56:00,
2013-08-21 21:01:00,68.4,66.6,30.12,ENE,65,0.0,0.0,94,0.00,,,0.04,WeatherCatV1.20B785,2013-08-22 01:01:00,
2013-08-21 21:06:00,68.3,66.8,30.12,ENE,65,0.0,0.0,95,0.00,,,0.04,WeatherCatV1.20B785,2013-08-22 01:06:00,
2013-08-21 21:11:00,68.1,66.6,30.12,ENE,65,0.0,0.0,95,0.00,,,0.04,WeatherCatV1.20B785,2013-08-22 01:11:00,
2013-08-21 21:16:00,68.0,66.5,30.12,ENE,65,0.0,0.0,95,0.00,,,0.04,WeatherCatV1.20B785,2013-08-22 01:16:00,
2013-08-21 21:21:00,67.9,66.7,30.13,ENE,65,0.0,0.0,96,0.00,,,0.04,WeatherCatV1.20B785,2013-08-22 01:21:00,
2013-08-21 21:26:00,67.9,66.7,30.13,ENE,65,0.0,0.0,96,0.00,,,0.04,WeatherCatV1.20B785,2013-08-22 01:26:00,
2013-08-21 21:31:00,67.8,66.6,30.13,ENE,65,0.0,0.0,96,0.00,,,0.04,WeatherCatV1.20B785,2013-08-22 01:31:00,
2013-08-21 21:36:00,67.8,66.6,30.13,ENE,65,0.0,0.0,96,0.00,,,0.04,WeatherCatV1.20B785,2013-08-22 01:36:00,
2013-08-21 21:41:00,67.8,66.6,30.13,ENE,65,0.0,0.0,96,0.00,,,0.04,WeatherCatV1.20B785,2013-08-22 01:41:00,
2013-08-21 21:46:00,67.7,66.5,30.14,ENE,65,0.0,0.0,96,0.00,,,0.04,WeatherCatV1.20B785,2013-08-22 01:46:00,
2013-08-21 21:51:00,67.7,66.5,30.14,ENE,65,0.0,0.0,96,0.00,,,0.04,WeatherCatV1.20B785,2013-08-22 01:51:00,
2013-08-21 21:56:00,67.5,66.3,30.14,ENE,65,0.0,0.0,96,0.00,,,0.04,WeatherCatV1.20B785,2013-08-22 01:56:00,
2013-08-21 22:01:00,67.4,66.5,30.14,ENE,65,0.0,0.0,97,0.00,,,0.04,WeatherCatV1.20B785,2013-08-22 02:01:00,
2013-08-21 22:06:00,67.4,66.5,30.14,ENE,65,0.0,0.0,97,0.00,,,0.04,WeatherCatV1.20B785,2013-08-22 02:06:00,
2013-08-21 22:11:00,67.2,66.3,30.15,ENE,65,0.0,0.0,97,0.00,,,0.04,WeatherCatV1.20B785,2013-08-22 02:11:00,
2013-08-21 22:16:00,67.1,66.2,30.15,ENE,65,0.0,0.0,97,0.00,,,0.04,WeatherCatV1.20B785,2013-08-22 02:16:00,
2013-08-21 22:21:00,67.0,66.1,30.15,ENE,65,0.0,0.0,97,0.00,,,0.04,WeatherCatV1.20B785,2013-08-22 02:21:00,
2013-08-21 22:26:00,66.9,66.0,30.15,ENE,65,0.0,0.0,97,0.00,,,0.04,WeatherCatV1.20B785,2013-08-22 02:26:00,
2013-08-21 22:31:00,66.7,65.8,30.15,ENE,65,0.0,0.0,97,0.00,,,0.04,WeatherCatV1.20B785,2013-08-22 02:31:00,
2013-08-21 22:36:00,66.7,65.8,30.14,ENE,65,0.0,0.0,97,0.00,,,0.04,WeatherCatV1.20B785,2013-08-22 02:36:00,
2013-08-21 22:41:00,66.6,65.7,30.15,ENE,65,0.0,0.0,97,0.00,,,0.04,WeatherCatV1.20B785,2013-08-22 02:41:00,
2013-08-21 22:46:00,66.5,65.6,30.15,ENE,65,0.0,0.0,97,0.00,,,0.04,WeatherCatV1.20B785,2013-08-22 02:46:00,
2013-08-21 22:51:00,66.4,65.5,30.15,ENE,65,0.0,0.0,97,0.00,,,0.04,WeatherCatV1.20B785,2013-08-22 02:51:00,
2013-08-21 22:56:00,66.3,65.4,30.14,ENE,65,0.0,0.0,97,0.00,,,0.04,WeatherCatV1.20B785,2013-08-22 02:56:00,
2013-08-21 23:01:00,66.4,65.5,30.15,ENE,65,0.0,0.0,97,0.00,,,0.04,WeatherCatV1.20B785,2013-08-22 03:01:00,
2013-08-21 23:06:00,66.2,65.3,30.15,ENE,65,0.0,0.0,97,0.00,,,0.04,WeatherCatV1.20B785,2013-08-22 03:06:00,
2013-08-21 23:11:00,66.2,65.3,30.15,ENE,65,0.0,0.0,97,0.00,,,0.04,WeatherCatV1.20B785,2013-08-22 03:11:00,
2013-08-21 23:16:00,66.0,65.1,30.15,ENE,65,0.0,0.0,97,0.00,,,0.04,WeatherCatV1.20B785,2013-08-22 03:16:00,
2013-08-21 23:21:00,65.9,65.0,30.15,ENE,65,0.0,0.0,97,0.00,,,0.04,WeatherCatV1.20B785,2013-08-22 03:21:00,
2013-08-21 23:26:00,65.8,64.9,30.15,ENE,65,0.0,0.0,97,0.00,,,0.04,WeatherCatV1.20B785,2013-08-22 03:26:00,
2013-08-21 23:31:00,65.8,65.2,30.15,ENE,65,0.0,0.0,98,0.00,,,0.04,WeatherCatV1.20B785,2013-08-22 03:31:00,
2013-08-21 23:36:00,65.8,65.2,30.14,ENE,65,0.0,0.0,98,0.00,,,0.04,WeatherCatV1.20B785,2013-08-22 03:36:00,
2013-08-21 23:41:00,65.7,65.1,30.14,ENE,70,0.0,0.0,98,0.00,,,0.04,WeatherCatV1.20B785,2013-08-22 03:41:00,
2013-08-21 23:46:00,65.6,65.0,30.14,ENE,70,0.0,0.0,98,0.00,,,0.04,WeatherCatV1.20B785,2013-08-22 03:46:00,
2013-08-21 23:51:00,65.4,64.5,30.14,ENE,70,0.0,0.0,97,0.00,,,0.04,WeatherCatV1.20B785,2013-08-22 03:51:00,
2013-08-21 23:56:00,65.3,64.4,30.14,ENE,70,0.0,0.0,97,0.00,,,0.04,WeatherCatV1.20B785,2013-08-22 03:56:00,